Regional Weather Roundup
Issued by NWS Upton, NY

Current Version | Previous Version | Text Only | Print | Product List | Glossary On
Versions: 1 2 3 4 5 6 7 8 9 10 11 12 13 14 15 16 17 18 19 20 21 22 23 24 25 26 27 28 29 30 31 32 33 34 35 36 37 38 39 40 41 42 43 44 45 46 47 48 49 50
030 ASUS41 KOKX 280708 RWROKX REGIONAL WEATHER ROUNDUP NATIONAL WEATHER SERVICE NEW YORK NY 300 AM EDT WED JUN 28 2017 NOTE: "FAIR" INDICATES FEW OR NO CLOUDS BELOW 12,000 FEET WITH NO SIGNIFICANT WEATHER AND/OR OBSTRUCTIONS TO VISIBILITY. NYZ071-072-176-178-NJZ106-104-280800- NEW YORK CITY METRO AREA CITY SKY/WX TMP DP RH WIND PRES REMARKS Central Park CLEAR 63 50 62 NW5 30.07R Bronx Bot Gard N/A 63 48 59 N2 30.05F LaGuardia APRT CLEAR 66 52 60 NW12 30.04R Kennedy INTL CLEAR 66 50 56 NW15 30.05R Breezy Point N/A 64 N/A N/A NW9G15 N/A Newark/Liberty CLEAR 62 51 67 W6 30.05R Teterboro CLEAR 62 50 64 N6 30.04R $$ NYZ177-179-078>081-280800- LONG ISLAND NEW YORK CITY SKY/WX TMP DP RH WIND PRES REMARKS Jones Beach N/A 64 N/A N/A NW7 N/A Matinecock PT NOT AVBL Farmingdale NOT AVBL MacArthur/ISP CLEAR 60 54 80 NW5 30.02R Shirley CLEAR 56 55 97 CALM 30.02R Mt Sinai Harb N/A N/A N/A N/A MISG N/A Westhampton CLEAR 52 48 86 CALM 30.03R East Hampton FAIR 53 50 90 CALM 30.01R Montauk N/A 57 55 93 CALM 30.02R $$ NYZ052-065-067-280800- HUDSON VALLEY CITY SKY/WX TMP DP RH WIND PRES REMARKS White Plains CLEAR 58 51 78 NW6 30.03R Larchmont Harb N/A 63 N/A N/A W12 N/A Croton O-T Hud N/A 63 N/A N/A NW7G13 N/A Newburgh CLEAR 55 52 88 W9 30.05R Montgomery CLEAR 52 49 89 CALM 30.05R Poughkeepsie PTCLDY 57 51 80 SW6 30.03R Albany MOCLDY 54 51 90 CALM 30.02R $$ NJZ001-105-106-008-010-013-015-019>022-104-280800- NEW JERSEY CITY SKY/WX TMP DP RH WIND PRES REMARKS Newark/Liberty CLEAR 62 51 67 W6 30.05R Teterboro CLEAR 62 50 64 N6 30.04R Caldwell PTCLDY 58 51 78 CALM 30.06R Somerville CLEAR 53 52 96 CALM 30.05R Linden FAIR 61 50 69 CALM 30.06R Perth Amboy N/A 61 N/A N/A W9 N/A Sussex CLEAR 51 50 96 CALM 30.07R Andover N/A 52 51 97 CALM 30.08R Trenton CLEAR 60 50 69 W3 30.07R Millville CLEAR 55 52 89 NW6 30.08R Atlantic City PTCLDY 60 50 69 NW7 30.07R Wrightstown CLEAR 60 50 68 NW6 30.04R Toms River PTCLDY 59 50 72 W5 30.07R Belmar CLEAR 60 50 69 NW8 30.07R $$ PAZ047>061-062-071-280800- EASTERN PENNSYLVANIA CITY SKY/WX TMP DP RH WIND PRES REMARKS Philadelphia CLEAR 65 48 54 NW8 30.09R Allentown CLEAR 55 48 77 W7 30.08R Scranton CLEAR 56 51 84 SW5 30.08R $$ CTZ002-004>006-009-010-012-RIZ004-006-007-MAZ004-011-015-280800- SOUTHERN NEW ENGLAND IN CT CITY SKY/WX TMP DP RH WIND PRES REMARKS Bradley INTL PTCLDY 52 50 93 CALM 30.01S Hartford FOG 55 55 100 CALM 30.01R VSB 1/4 Danbury NOT AVBL Wtrbury/Oxford CLEAR 50 45 81 W3 30.03R Bridgeport CLEAR 60 52 74 W3 30.02R Meriden PTCLDY 50 50 100 CALM 30.01S FOG New Haven CLEAR 56 51 84 CALM 30.01S Chester FAIR 55 48 76 CALM 30.01R Groton PTCLDY 56 52 86 CALM 30.00R Wilimantic PTCLDY 52 50 93 CALM 30.02R IN RI CITY SKY/WX TMP DP RH WIND PRES REMARKS Providence PTCLDY 57 53 86 W5 30.00R Block Island PTCLDY 59 52 77 NW5 30.02R Westerly MOCLDY 57 53 86 CALM 30.00S IN MA CITY SKY/WX TMP DP RH WIND PRES REMARKS Boston PTCLDY 58 52 80 W10 29.97S Worcester CLEAR 52 48 86 W10 29.99F Westfield CLEAR 48 48 100 CALM N/A Provincetown CLOUDY 59 55 87 W9 29.98R Nantucket CLOUDY 64 54 69 NW8 29.98R $$ ANZ330-335-338-340-345-350-353-355-280800- COASTAL MARINE OBSERVATIONS STATION/POSITION TIME SKY/WX TEMP WIND PRES VSBY WAVE AIR SEA DIR/SP/G HT/PER (UTC) (F) (DEG/KT/KT) (MB) (MI) (FT/S) NY HARB ENTRANCE 0550 67 68 300/ 14/ 16 1016.2 1/ 8 20 S FIRE ISLAND 0650 68 70 330/ 8/ 10 1016.2 2/ 4 GREAT SOUTH BAY 0615 66 75 330/ 8/ 8 N/A 23 SSW MONTAUK P 0550 66 65 1016.1 2/ 8 15 E BARNEGAT LI 0630 65 N/A 2/10 HUDSON CANYON 0550 69 68 310/ 8/ 8 1015.8 2/ 4 KINGS POINT 0636 350/ 11/ 13 N/A EXECUTION ROCKS 0645 64 160/ 6/ 8 N/A CENTRAL LI SOUND NOT AVBL EASTERN LI SOUND NOT AVBL ROBBINS REEF 0642 300/ 9/ 11 N/A $$ >>>>>>>>>>>>>>>>>>>>>>>>>>>> KEY <<<<<<<<<<<<<<<<<<<<<<<<<<< > < > SKY/WX - Sky Condition/Present Weather < > TMP - Temperature in Fahrenheit < > DP - Dew Point in Fahrenheit < > RH - Relative Humidity in Percent < > WIND - Direction (from) and Speed in MPH < > PRES - Mean Sea Level Pressure (inches of Hg) < > WCI - Wind Chill Index < > VSB - VISIBILITY IN MILES < > HX - HEAT INDEX < > TC - TEMPERATURE IN CELSIUS < > VRB - VARIABLE WIND DIRECTION < > < >>>>>>>>>>>>>>>>>>>>>>>>>>>> KEY <<<<<<<<<<<<<<<<<<<<<<<<<<<

USA.gov is the U.S. government's official web portal to all federal, state and local government web resources and services.